This demonstration page uses our WeatherBlox Daily Observations layout. Learn more.

41.55636, -103.73856

Hourly Observations for May 15, 2016

Temp ( °F °C ) Dew Point ( °F °C ) Humidity (%) Winds ( mph kmh ) Pressure ( in mb ) Visibility ( mi km ) Precip ( " mm )
12:53 am 00:53 Cloudy 45 7.2 36 2.2 71 71 ESE 6 9 30.19 1022 10 16.0934 0 0
1:53 am 01:53 Cloudy 45 7.2 35 1.7 68 68 E 7 11 30.16 1022 10 16.0934 0 0
2:53 am 02:53 Cloudy 45 7.2 35 1.7 68 68 ESE 6 9 30.16 1021 10 16.0934 0 0
3:53 am 03:53 Cloudy 45 7.2 35 1.7 68 68 E 9 15 30.13 1020 10 16.0934 0 0
4:53 am 04:53 Cloudy 45 7.2 35 1.7 68 68 ESE 14 22 30.1 1019 10 16.0934 0 0
5:53 am 05:53 Cloudy 45 7.2 35 1.7 68 68 ESE 14 22 30.08 1019 10 16.0934 0 0
6:53 am 06:53 Cloudy 45 7.2 35 1.7 68 68 ESE 16 26 30.08 1019 10 16.0934 0 0
7:53 am 07:53 Cloudy 45 7.2 35 1.7 68 68 ESE 18 30 30.07 1018 10 16.0934 0 0
8:53 am 08:53 Cloudy 46 7.8 36 2.2 68 68 ESE 17 28 30.07 1018 10 16.0934 0 0
9:53 am 09:53 Cloudy 49 9.4 36 2.2 61 61 SE 17 28 30.03 1017 10 16.0934 0 0
10:53 am 10:53 Cloudy 50 10 37 2.8 61 61 SE 15 24 30.01 1016 10 16.0934 0 0
11:53 am 11:53 Cloudy 50 10 37 2.8 61 61 SE 18 30 29.99 1016 10 16.0934 0 0
12:53 pm 12:53 Cloudy 51 10.6 37 2.8 59 59 SE 17 28 29.96 1015 10 16.0934 0 0
1:25 pm 13:25 Cloudy 50 10 38 3.3 63 63 SE 16 26 29.94 1014 10 16.0934 0 0
1:53 pm 13:53 Cloudy 50 10 38 3.3 63 63 E 18 30 29.97 1015 10 16.0934 0 0
2:53 pm 14:53 Cloudy with Light Rain 50 10 39 3.9 66 66 ESE 17 28 29.97 1015 10 16.0934 0 0.0254
3:12 pm 15:12 Cloudy 50 10 37 3 62 62 ESE 15 24 29.94 1014 10 16.0934 0 0
3:53 pm 15:53 Cloudy with Light Rain 48 8.9 40 4.4 74 74 ESE 14 22 29.99 1016 10 16.0934 0.01 0.254
4:53 pm 16:53 Cloudy 49 9.4 40 4.4 71 71 ESE 17 28 29.95 1014 10 16.0934 0 0.0254
5:53 pm 17:53 Partly Cloudy 49 9.4 38 3.3 66 66 ESE 15 24 29.93 1014 10 16.0934 0 0
6:53 pm 18:53 Mostly Cloudy 47 8.3 38 3.3 71 71 ESE 20 31 29.94 1014 10 16.0934 0 0
7:53 pm 19:53 Cloudy with Rain 45 7.2 39 3.9 80 80 SE 15 24 29.97 1015 4 6.43736 0.02 0.508
8:53 pm 20:53 Cloudy with Light Rain 44 6.7 40 4.4 85 85 ESE 12 19 29.99 1016 7 11.26538 0.02 0.508
9:53 pm 21:53 Cloudy 44 6.7 40 4.4 85 85 E 13 20 29.96 1015 10 16.0934 0 0.0254
10:53 pm 22:53 Cloudy 43 6.1 39 3.9 86 86 E 12 19 29.96 1015 10 16.0934 0 0.0254
11:53 pm 23:53 Cloudy with Light Rain 43 6.1 39 3.9 86 86 ESE 12 19 29.96 1015 10 16.0934 0 0.0254

Powered by AerisWeather